EW1979 Weather Reports


Display with metric or nautical units.
time (UTC)temp
F
wind
direction
speed
MPH
gust
MPH
rain 1hr
in
rain 24hr
in
rain mn
in
humidity
%
barometer
mb
20260506231517 65 5 0.0 0.0 0.00 0.00 0.00 80 1007.6
20260506230103 66 355 0.0 0.0 0.00 0.00 0.00 80 1007.6
20260506224602 68 340 0.0 0.0 0.00 0.00 0.00 78 1007.2
20260506221507 69 355 0.0 0.0 0.00 0.00 0.00 78 1007.1
20260506220007 69 355 0.0 0.0 0.00 0.00 0.00 77 1007.1
20260506214507 72 9 0.0 0.0 0.00 0.00 0.00 73 1006.5
20260506210008 79 9 0.0 0.0 0.00 0.00 0.00 72 1006.0
20260506204503 78 17 0.0 0.0 0.00 0.00 0.00 74 1006.2
20260506203002 78 15 0.0 0.0 0.00 0.00 0.00 75 1006.4
20260506200104 77 34 0.0 0.0 0.00 0.00 0.00 76 1006.5
20260506194503 77 36 0.0 0.0 0.00 0.00 0.00 76 1006.6
20260506193002 78 47 0.0 0.0 0.00 0.00 0.00 74 1006.7
20260506191508 79 47 0.0 0.0 0.00 0.00 0.00 73 1006.7
20260506184609 76 45 0.0 0.0 0.00 0.00 0.00 74 1006.8
20260506183106 75 44 0.0 0.0 0.00 0.00 0.00 74 1007.2
20260506181509 75 44 0.0 0.0 0.00 0.00 0.00 74 1007.4
20260506174603 76 42 0.0 0.0 0.00 0.00 0.00 69 1007.3
20260506173110 73 36 0.0 0.0 0.00 0.00 0.00 45 1007.9
20260506164603 71 12 0.0 0.0 0.00 0.00 0.00 68 1007.7
20260506161604 73 177 0.0 0.0 0.00 0.00 0.00 31 1007.6
20260506160117 73 177 0.0 0.0 0.00 0.00 0.00 100 1007.8
20260506153104 73 161 0.0 0.0 0.00 0.00 0.00 100 1007.5
20260506151506 72 160 0.0 0.0 0.00 0.00 0.00 100 1007.5
20260506150103 72 159 0.0 0.0 0.00 0.00 0.00 100 1007.3
20260506144609 72 157 0.0 0.0 0.00 0.00 0.00 100 1007.2
20260506141507 71 157 0.0 0.0 0.00 0.00 0.00 100 1007.3
20260506140002 71 156 0.0 0.0 0.00 0.00 0.00 100 1006.6
20260506134502 71 168 0.0 0.0 0.00 0.00 0.00 100 1006.2
20260506133003 71 168 0.0 0.0 0.00 0.00 0.00 100 1005.9
20260506131606 71 168 0.0 0.0 0.00 0.00 0.00 100 1005.7
20260506130104 71 168 0.0 0.0 0.00 0.00 0.00 100 1005.7
20260506124604 71 167 0.0 0.0 0.00 0.00 0.00 100 1005.0
20260506123007 71 167 0.0 0.0 0.00 0.00 0.00 100 1004.9
20260506121602 71 167 0.0 0.0 0.00 0.00 0.00 100 1004.9
20260506120008 71 167 0.0 0.0 0.00 0.00 0.00 100 1004.8
20260506113025 71 167 0.0 0.0 0.00 0.00 0.00 100 1004.8
20260506111510 71 168 0.0 0.0 0.00 0.00 0.00 100 1004.9
20260506110009 71 168 0.0 0.0 0.00 0.00 0.00 100 1005.1
20260506104501 71 168 0.0 0.0 0.00 0.00 0.00 100 1005.1
20260506103114 71 161 0.0 0.0 0.00 0.00 0.00 100 1005.0
20260506101553 71 157 0.0 0.0 0.00 0.00 0.00 100 1004.8
20260506100050 71 155 0.0 0.0 0.00 0.00 0.00 100 1004.7
20260506094544 71 164 0.0 0.0 0.00 0.00 0.00 100 1004.9
20260506093040 71 167 0.0 0.0 0.00 0.00 0.00 100 1004.8
20260506091536 71 181 0.0 0.0 0.00 0.00 0.00 100 1004.6
20260506090043 71 155 0.0 0.0 0.00 0.00 0.00 100 1004.5
20260506084527 71 165 0.0 0.0 0.00 0.00 0.00 100 1004.4
20260506083022 71 156 0.0 0.0 0.00 0.00 0.00 100 1004.3
20260506081518 71 152 0.0 0.0 0.00 0.00 0.00 1 1004.5
20260506073009 72 154 0.0 0.0 0.00 0.00 0.00 13 1004.6
20260506071506 72 167 0.0 0.0 0.00 0.00 0.00 18 1004.8
20260506061602 73 159 0.0 0.0 0.00 0.00 0.00 34 1005.2
20260506050109 74 153 0.0 0.0 0.00 0.00 0.00 41 1005.1
20260506044551 74 144 0.0 0.0 0.00 0.00 0.00 41 1005.5
20260506043043 74 146 0.0 0.0 0.00 0.00 0.00 44 1005.1
20260506041538 74 130 0.0 0.0 0.00 0.00 0.00 48 1005.1
20260506040032 74 152 0.0 0.0 0.00 0.00 0.00 57 1004.9
20260506034529 74 152 0.0 0.0 0.00 0.00 0.00 63 1004.7
20260506033025 74 152 0.0 0.0 0.00 0.00 0.00 68 1004.6
20260506031520 74 152 0.0 0.0 0.00 0.00 0.00 71 1004.4
20260506030021 75 153 0.0 0.0 0.00 0.00 0.00 74 1004.1
20260506024530 75 153 0.0 0.0 0.00 0.00 0.00 76 1004.0
20260506023006 75 165 0.0 0.0 0.00 0.00 0.00 77 1003.6
20260506021502 75 171 0.0 0.0 0.00 0.00 0.00 78 1003.4
20260506020057 76 171 0.0 0.0 0.00 0.00 0.00 78 1003.1
20260506014554 76 171 0.0 0.0 0.00 0.00 0.00 78 1002.9
20260506013102 77 180 0.0 0.0 0.00 0.00 0.00 78 1002.7
20260506011602 77 183 0.0 0.0 0.00 0.00 0.00 77 1002.4
20260506010045 78 192 0.0 0.0 0.00 0.00 0.00 76 1002.2
20260506004540 79 165 0.0 0.0 0.00 0.00 0.00 75 1002.5
20260506003037 80 165 0.0 0.0 0.00 0.00 0.00 74 1002.5
20260506001538 80 165 0.0 0.0 0.00 0.00 0.00 73 1002.5
20260506000032 80 173 0.0 0.0 0.00 0.00 0.00 71 1002.6
20260505234523 80 181 0.0 0.0 0.00 0.00 0.00 70 1002.4
20260505233019 81 161 0.0 0.0 0.00 0.00 0.00 69 1002.4